This is the latest recevied weather packets stored in our database for station/object OE3MHU-13. If no packets are shown the sender has not sent any weather packets the latest 10 day(s).
| Time | Temp. | Humidity | Pressure | Rain* | Wind** | Luminosity | Snow |
|---|---|---|---|---|---|---|---|
| 1787644605 | 21.67° C | 58% | 1014.7 hPa | 0 mm | - | - | - |
| 1787644301 | 21.67° C | 58% | 1014.7 hPa | 0 mm | - | - | - |
| 1787644001 | 21.67° C | 58% | 1014.6 hPa | 0 mm | - | - | - |
| 1787643700 | 21.11° C | 59% | 1014.6 hPa | 0 mm | - | - | - |
| 1787643401 | 21.11° C | 60% | 1014.8 hPa | 0 mm | - | - | - |
| 1787643101 | 20.56° C | 61% | 1014.7 hPa | 0 mm | - | - | - |
| 1787642801 | 20.56° C | 61% | 1014.8 hPa | 0 mm | - | - | - |
| 1787642501 | 20.56° C | 62% | 1014.8 hPa | 0 mm | - | - | - |
| 1787642201 | 20° C | 62% | 1014.6 hPa | 0 mm | - | - | - |
| 1787641901 | 20° C | 63% | 1014.7 hPa | 0 mm | - | - | - |
| 1787641596 | 20° C | 63% | 1014.7 hPa | 0 mm | - | - | - |
| 1787641297 | 19.44° C | 63% | 1014.9 hPa | 0 mm | - | - | - |
| 1787640997 | 19.44° C | 63% | 1014.8 hPa | 0 mm | - | - | - |
| 1787640697 | 19.44° C | 63% | 1014.8 hPa | 0 mm | - | - | - |
| 1787640397 | 19.44° C | 65% | 1014.9 hPa | 0 mm | - | - | - |
| 1787640098 | 18.89° C | 66% | 1014.9 hPa | 0 mm | - | - | - |
| 1787639797 | 18.33° C | 66% | 1015 hPa | 0 mm | - | - | - |
| 1787639497 | 18.33° C | 67% | 1015 hPa | 0 mm | - | - | - |
| 1787639197 | 18.33° C | 67% | 1015 hPa | 0 mm | - | - | - |
| 1787639031 | 18.33° C | 67% | 1015.1 hPa | 0 mm | - | - | - |
| 1787638593 | 17.78° C | 67% | 1015.2 hPa | 0 mm | - | - | - |
| 1787638293 | 17.78° C | 67% | 1015.2 hPa | 0 mm | - | - | - |
| 1787637993 | 17.78° C | 66% | 1015.2 hPa | 0 mm | - | - | - |
| 1787637693 | 18.33° C | 66% | 1015.3 hPa | 0 mm | - | - | - |
| 1787637394 | 18.33° C | 66% | 1015.4 hPa | 0 mm | - | - | - |
* Rain latest hour (hover to see other rain measurements)
** Current wind speed in m/s (hover to see current wind gust speed)